[[{"header":{"parameterUnit":"m.s-1","parameterCategory":1,"la1":30.2991,"la2":30.254,"lo1":-89.0895,"lo2":-89.0444,"dy":0.0017,"dx":0.0017,"nx":28,"ny":28,"refTime":"2025-07-09T09:00:00:Z","depth":0,"parameterNumber":2,"parameterNumberName":"U-component_of_WINDS"},"data":[0,0,0,0,0,0,0,0,0,0,0,0,0,0,0,0,0,0,0,0,0,0,0,0,0,0,0,0,0,0,0,0,0,0,0,0,0,0,0,0,0,0,0,0,0,0,0,0,0,0,0,0,0,0,0,0,0,0,2.0605,2.0608,0,2.0849,2.0852,2.0854,2.0924,2.0923,2.0922,2.092,2.1171,2.1179,2.1187,0,0,0,0,0,0,0,0,0,0,0,0,0,2.0202,2.0209,2.0605,2.0608,2.0611,2.0848,2.0852,2.0855,2.0925,2.0923,2.0921,2.092,2.1169,2.1178,2.1187,0,0,0,0,0,0,0,0,0,0,0,0,0,2.0404,2.0211,2.0604,2.0674,2.0683,2.0848,2.0852,2.0856,2.0925,2.0923,2.0921,2.0919,2.1165,2.1177,2.1189,2.1302,0,0,2.1225,2.123,0,0,0,0,0,0,0,0,2.0392,2.0419,2.0661,2.067,2.068,2.0854,2.0802,2.1005,2.0925,2.0833,2.092,2.0918,2.1067,2.1087,2.1137,2.1313,2.1324,2.1226,2.1233,2.1238,2.1242,0,0,0,0,0,0,0,2.0378,2.0409,2.0702,2.0665,2.0676,2.0694,2.0721,2.084,2.0958,2.0841,2.0847,2.0875,2.1072,2.1126,2.1144,2.1328,2.1226,2.1236,2.1244,2.1248,2.161,2.1612,0,0,0,0,0,0,2.0352,2.0397,2.0694,2.0709,2.0528,2.0703,2.0733,2.08,2.0957,2.0979,2.0876,2.0877,2.1106,2.113,2.1153,2.1295,2.1238,2.1249,2.1256,2.1607,2.161,2.1613,0,0,0,0,0,0,2.0343,2.0378,2.0684,2.0554,2.0595,2.0712,2.0787,2.0806,2.086,2.0984,2.1005,2.0909,2.1106,2.1136,2.1264,2.1305,2.1255,2.1265,2.1604,2.1608,2.1611,2.1581,0,0,0,0,0,0,2.0331,2.0374,2.0418,2.0555,2.0601,2.0791,2.079,2.0812,2.088,2.0883,2.102,2.1041,2.1107,2.1246,2.1276,2.132,2.1275,2.1601,2.1606,2.161,2.1579,2.1583,2.1587,0,0,0,0,0,2.0317,2.04,2.042,2.0455,2.0658,2.0793,2.0819,2.0893,2.0883,2.0928,2.1008,2.1037,2.1296,2.1259,2.1293,2.1341,2.1599,2.1605,2.161,2.1577,2.1582,2.1587,0,0,0,0,0,0,2.0265,2.0419,2.0443,2.0573,2.0669,2.0804,2.0863,2.0896,2.0997,2.0996,2.1084,2.1114,2.1236,2.1302,2.1258,2.1459,2.1448,2.1461,2.1411,2.1418,2.1421,2.1402,2.1285,0,0,0,0,0,2.0269,2.0365,2.0494,2.0596,2.0644,2.0745,2.0806,2.0854,2.0958,2.0999,2.1088,2.1188,2.1292,2.1359,2.1461,2.1589,2.162,2.164,2.1644,2.1646,2.1656,2.1729,2.1739,2.1631,2.1631,2.1631,0,0,2.0277,2.0373,2.0429,2.0588,2.0669,2.0766,2.0779,2.0882,2.0955,2.1015,2.1141,2.121,2.1327,2.1455,2.1517,2.1514,2.1693,2.1653,2.1655,2.1663,2.1735,2.1745,2.1754,2.1635,2.1634,2.1634,0,0,2.0342,2.0425,2.0519,2.0599,2.0721,2.0788,2.081,2.0941,2.0989,2.1117,2.1164,2.1253,2.1431,2.1512,2.1577,2.1674,2.1704,2.1705,2.1726,2.1796,2.1804,2.1812,2.1846,2.1857,2.1715,2.1714,2.1714,0,2.0338,2.0486,2.0563,2.0664,2.0733,2.0792,2.0888,2.0962,2.1111,2.1157,2.1153,2.1377,2.146,2.1608,2.1632,2.1683,2.1711,2.1689,2.1796,2.1805,2.1814,2.1847,2.186,2.1714,2.1714,2.1714,2.1714,0,2.0474,2.0577,2.0638,2.078,2.0856,2.0954,2.1046,2.1114,2.1156,2.1224,2.1354,2.1456,2.158,2.1619,2.1661,2.1774,2.1768,2.1779,2.1769,2.1822,2.1855,2.1869,2.1713,2.1713,2.1713,2.1713,0,0,2.0512,2.0696,2.0717,2.0782,2.0921,2.1002,2.1103,2.1224,2.1281,2.1382,2.1469,2.1618,2.1629,2.1702,2.1754,2.1816,2.1886,2.1819,2.1823,2.1827,2.2016,2.2006,2.202,2.1907,2.191,2.1912,2.2006,0,2.0594,2.0776,2.0848,2.0996,2.1092,2.115,2.1238,2.1333,2.1399,2.149,2.1564,2.1668,2.1675,2.172,2.1783,2.1863,2.1925,2.1858,2.1989,2.1993,2.1956,2.2037,2.2027,2.211,2.2019,2.2022,2.2023,0,2.0714,2.0815,2.0972,2.11,2.1143,2.122,2.1337,2.1424,2.1533,2.1578,2.166,2.1708,2.1817,2.1801,2.1952,2.1905,2.1964,2.2011,2.2016,2.2031,2.201,2.2053,2.2139,2.2151,2.2045,2.2043,2.2041,0,2.0724,2.0901,2.1017,2.1072,2.1224,2.1277,2.1343,2.145,2.1518,2.1621,2.1667,2.1781,2.1843,2.1931,2.201,2.1991,2.2154,2.2144,2.2193,2.2191,2.2224,2.222,2.2319,2.2263,2.2263,2.2262,2.2262,0,2.0807,2.0901,2.1024,2.1096,2.1203,2.1286,2.139,2.146,2.1555,2.1642,2.17,2.178,2.1879,2.1973,2.2035,2.2151,2.2179,2.2217,2.2233,2.2212,2.2207,2.225,2.2246,2.2266,2.2265,2.2264,2.2264,0,2.0837,2.0923,2.1054,2.1187,2.1223,2.1296,2.141,2.1483,2.1552,2.1661,2.1692,2.1801,2.1914,2.2001,2.2149,2.2191,2.2313,2.233,2.2275,2.2283,2.2326,2.2321,2.2456,2.2478,2.2407,2.2407,2.2408,0,2.0883,2.0956,2.1098,2.116,2.1225,2.1324,2.1395,2.148,2.1551,2.1682,2.1738,2.1855,2.1953,2.2131,2.2224,2.2337,2.2356,2.2396,2.2374,2.235,2.2356,2.235,2.2358,2.2398,2.2399,2.2399,2.2399,0,2.0957,2.0996,2.1094,2.1209,2.1291,2.1385,2.148,2.1527,2.163,2.1707,2.1823,2.1899,2.2049,2.2165,2.2288,2.2357,2.2395,2.2406,2.2423,2.2402,2.2367,2.2386,2.2282,2.2402,2.2402,2.2401,2.2401,2.2401,2.0996,2.1063,2.1173,2.1282,2.1362,2.145,2.1525,2.1604,2.1702,2.183,2.1875,2.1994,2.2104,2.2272,2.2342,2.2437,2.2439,2.2464,2.247,2.2475,2.2472,2.2352,2.246,2.246,2.246,2.246,2.246,0,2.1071,2.1145,2.1244,2.1375,2.146,2.149,2.1597,2.1666,2.177,2.1869,2.1964,2.2098,2.221,2.2312,2.243,2.2487,2.2507,2.2514,2.2511,2.2526,2.2464,2.2437,2.2496,2.2496,2.2496,2.2496,2.2496,2.2496,2.112,2.1237,2.1289,2.1446,2.152,2.1637,2.1696,2.1778,2.1856,2.2003,2.2096,2.2162,2.2263,2.2388,2.2493,2.252,2.2561,2.2563,2.2595,2.2535,2.253,2.2526,2.2501,2.2571,2.2571,2.2648,2.2649,2.265]},{"header":{"parameterUnit":"m.s-1","parameterCategory":1,"la1":30.2991,"la2":30.254,"lo1":-89.0895,"lo2":-89.0444,"dy":0.0017,"dx":0.0017,"nx":28,"ny":28,"refTime":"2025-07-09T09:00:00:Z","depth":0,"parameterNumber":3,"parameterNumberName":"V-component_of_WINDS"},"data":[0,0,0,0,0,0,0,0,0,0,0,0,0,0,0,0,0,0,0,0,0,0,0,0,0,0,0,0,0,0,0,0,0,0,0,0,0,0,0,0,0,0,0,0,0,0,0,0,0,0,0,0,0,0,0,0,0,0,5.6061,5.6063,0,5.626,5.6262,5.6265,5.6263,5.6261,5.6258,5.6256,5.6453,5.646,5.6468,0,0,0,0,0,0,0,0,0,0,0,0,0,5.5669,5.5676,5.606,5.6063,5.6065,5.626,5.6263,5.6265,5.6264,5.6261,5.6258,5.6255,5.645,5.6459,5.6468,0,0,0,0,0,0,0,0,0,0,0,0,0,5.5851,5.5679,5.606,5.6088,5.6093,5.6259,5.6263,5.6266,5.6265,5.6261,5.6257,5.6253,5.6447,5.6458,5.647,5.6619,0,0,5.6505,5.651,0,0,0,0,0,0,0,0,5.584,5.5865,5.6082,5.6087,5.6092,5.6233,5.6197,5.6384,5.6266,5.6199,5.6256,5.6251,5.6382,5.6399,5.6445,5.6628,5.6636,5.6506,5.6513,5.6518,5.6521,0,0,0,0,0,0,0,5.5828,5.5856,5.6139,5.6085,5.6091,5.6088,5.611,5.6232,5.631,5.6205,5.6205,5.6229,5.6384,5.6434,5.6449,5.6639,5.6505,5.6516,5.6523,5.6527,5.6952,5.6956,0,0,0,0,0,0,5.5811,5.5846,5.6133,5.6145,5.5954,5.6098,5.6122,5.6192,5.6309,5.6323,5.6232,5.6228,5.6416,5.6436,5.6456,5.6637,5.6518,5.6528,5.6535,5.6947,5.6953,5.6957,0,0,0,0,0,0,5.5802,5.5836,5.6125,5.5996,5.6032,5.6109,5.6187,5.6198,5.6247,5.633,5.6343,5.6269,5.6414,5.644,5.6578,5.6644,5.6534,5.6544,5.6942,5.6949,5.6955,5.7001,0,0,0,0,0,0,5.5791,5.5833,5.5893,5.5997,5.6039,5.6246,5.6191,5.6204,5.6268,5.6265,5.6367,5.6381,5.6412,5.6561,5.659,5.6658,5.6553,5.6937,5.6945,5.6953,5.6994,5.7008,5.702,0,0,0,0,0,5.5777,5.5897,5.5896,5.5931,5.6116,5.625,5.6274,5.6311,5.6273,5.6332,5.6385,5.6377,5.6632,5.6575,5.6607,5.668,5.6933,5.6943,5.6952,5.6988,5.7005,5.702,0,0,0,0,0,0,5.5796,5.5911,5.5911,5.6069,5.615,5.625,5.6326,5.6328,5.642,5.6413,5.6451,5.6474,5.6612,5.666,5.6594,5.6829,5.6777,5.6794,5.6793,5.681,5.6824,5.6809,5.6563,0,0,0,0,0,5.5818,5.5921,5.6015,5.6144,5.6185,5.6248,5.6308,5.6329,5.6414,5.6448,5.651,5.659,5.6688,5.6752,5.6847,5.7,5.7021,5.7066,5.7079,5.7089,5.7103,5.7186,5.7206,5.699,5.699,5.699,0,0,5.5866,5.5941,5.6003,5.615,5.6215,5.6317,5.6277,5.6387,5.6463,5.6463,5.6599,5.6647,5.6739,5.6885,5.6952,5.6929,5.7168,5.7102,5.711,5.7118,5.7198,5.7219,5.7237,5.6997,5.6995,5.6994,0,0,5.6004,5.6073,5.6188,5.6254,5.6355,5.6396,5.6423,5.6523,5.6556,5.6692,5.6694,5.6783,5.6951,5.7016,5.7071,5.7232,5.7228,5.7262,5.7331,5.7411,5.7428,5.7443,5.75,5.752,5.7275,5.7275,5.7275,0,5.605,5.6207,5.6246,5.6357,5.642,5.6427,5.6542,5.6604,5.6729,5.6771,5.6743,5.6954,5.7016,5.7177,5.7216,5.7261,5.7291,5.725,5.7423,5.7439,5.7454,5.7508,5.7529,5.7279,5.7278,5.7278,5.7278,0,5.6257,5.6366,5.6446,5.6569,5.6641,5.6753,5.6806,5.6874,5.6888,5.6931,5.7068,5.7143,5.7252,5.7292,5.7306,5.7454,5.7436,5.7415,5.7364,5.7477,5.7528,5.7549,5.7283,5.7282,5.7281,5.728,0,0,5.6414,5.6557,5.6586,5.6641,5.6751,5.6834,5.6945,5.7054,5.7111,5.7196,5.7288,5.743,5.7411,5.7473,5.7494,5.7565,5.7686,5.7535,5.7538,5.756,5.7851,5.7866,5.7889,5.7684,5.7688,5.7691,5.7843,0,5.6564,5.6765,5.6802,5.6976,5.7075,5.7082,5.7178,5.7254,5.7297,5.7385,5.743,5.753,5.7499,5.7536,5.7606,5.7656,5.7745,5.7646,5.7767,5.7771,5.7744,5.7917,5.7933,5.8073,5.7864,5.7867,5.787,0,5.6766,5.6859,5.7043,5.7139,5.7181,5.7268,5.737,5.7455,5.754,5.7565,5.7635,5.7648,5.776,5.7703,5.7857,5.7789,5.784,5.7872,5.7879,5.7891,5.7827,5.7933,5.8119,5.814,5.7902,5.7899,5.7897,0,5.6861,5.7031,5.7163,5.721,5.7325,5.7385,5.7435,5.7517,5.758,5.7668,5.7708,5.7807,5.7861,5.7936,5.7974,5.793,5.8124,5.8071,5.8146,5.8146,5.8187,5.8184,5.8383,5.8221,5.8221,5.822,5.822,0,5.7024,5.7136,5.7207,5.7288,5.7413,5.7453,5.7574,5.7622,5.7695,5.7783,5.7794,5.7876,5.7921,5.8009,5.8039,5.8161,5.8185,5.8207,5.8213,5.8206,5.8203,5.824,5.8231,5.8226,5.8225,5.8224,5.8223,0,5.7151,5.7204,5.7348,5.7445,5.7472,5.7559,5.7641,5.7718,5.776,5.7871,5.79,5.7964,5.8068,5.8114,5.824,5.826,5.8399,5.8399,5.8371,5.8373,5.8446,5.8438,5.8676,5.8708,5.8525,5.8526,5.8528,0,5.7252,5.7339,5.7445,5.7507,5.7559,5.7657,5.7722,5.7763,5.7829,5.7932,5.7996,5.81,5.8186,5.8351,5.8407,5.8504,5.8506,5.8582,5.852,5.8509,5.8506,5.85,5.8508,5.8593,5.8595,5.8597,5.8598,0,5.7425,5.7446,5.754,5.7643,5.772,5.7802,5.7882,5.793,5.7984,5.8057,5.8164,5.8231,5.8361,5.8464,5.8564,5.8612,5.8613,5.8617,5.8639,5.8632,5.8613,5.8623,5.8402,5.8611,5.861,5.8609,5.8608,5.8608,5.7541,5.7618,5.7705,5.7809,5.7874,5.7948,5.8025,5.8077,5.8168,5.8279,5.8297,5.8411,5.8491,5.8626,5.8678,5.8766,5.8747,5.8779,5.8787,5.8795,5.8799,5.8599,5.8784,5.8784,5.8783,5.8783,5.8783,0,5.7713,5.777,5.7865,5.7978,5.8058,5.8055,5.8143,5.8209,5.8311,5.8387,5.8471,5.8593,5.8693,5.8757,5.8856,5.8914,5.8917,5.8938,5.8934,5.8945,5.8811,5.8781,5.8934,5.8934,5.8934,5.8934,5.8934,5.8934,5.7813,5.7942,5.7973,5.8134,5.8189,5.8303,5.8353,5.842,5.8481,5.8618,5.8702,5.8744,5.8814,5.8919,5.9008,5.9024,5.906,5.9083,5.9097,5.897,5.8955,5.894,5.8912,5.909,5.909,5.9224,5.9226,5.9227]}]]